Temperature
17 17 17 17 18 18 18 18 18 18 18 18 18 18 17 17 18 18 18 18 18 18 18 18 18 18 18 18 18 18 18 18 18 18 18 18 18 18 18 18 18 18 18
17 17 17 17 17 18 18 18 18 18 17 17 17 17 17 17 17 17 17 17 17 17 17 17 17 17 17 17 17 18 18 18 18 18 18 18 18 18 18 18 18 18 18
17 17 17 17 17 17 17 17 17 17 17 17 17 17 17 17 17 17 17 17 17 17 17 17 17 17 17 17 17 17 17 17 18 18 17 17 17 18 18 18 18 18 18
17 17 17 17 17 17 17 17 17 17 17 17 17 17 17 17 16 16 16 17 17 17 17 17 17 17 17 17 17 17 17 17 17 17 17 17 17 17 18 18 18 18 18
16 16 17 17 17 17 17 17 17 17 17 17 17 17 16 16 16 16 16 16 17 17 17 17 17 17 17 17 17 17 17 17 17 17 17 17 17 17 18 18 18 18 18
16 16 17 17 17 17 17 17 17 17 17 16 16 16 16 16 16 16 16 16 16 17 17 17 17 17 17 17 17 17 17 17 17 16 16 16 17 17 18 18 18 18 18
16 16 16 17 17 17 17 17 17 16 16 16 16 16 16 16 16 16 16 16 16 16 16 16 16 16 17 17 17 17 17 17 16 16 16 16 17 17 17 17 18 17 18
16 16 16 17 17 16 17 16 16 16 16 16 16 16 16 16 16 16 16 16 16 16 16 16 16 16 16 17 17 17 17 17 16 16 16 16 17 17 17 17 17 17 17
16 16 16 16 16 16 16 16 16 16 16 16 16 16 16 16 16 16 16 16 16 16 16 16 16 16 16 16 17 17 17 17 16 16 16 16 17 17 17 17 17 17 17
16 16 16 16 16 16 16 16 16 16 16 16 16 16 16 16 15 15 15 16 16 16 16 16 16 16 16 16 16 17 17 16 16 16 16 16 17 17 17 17 17 17 17
16 16 17 16 16 16 16 16 16 16 16 16 16 15 15 15 15 15 15 16 16 16 16 16 16 16 16 16 16 16 16 16 16 16 16 16 16 17 17 17 17 17 17
17 17 17 16 16 16 16 16 16 16 15 15 15 15 15 15 15 15 15 15 15 15 16 16 16 16 16 16 16 16 16 16 16 16 16 16 16 16 17 17 17 17 17
17 16 16 16 16 16 16 16 16 16 15 15 15 15 15 15 15 15 15 15 15 15 15 15 16 15 16 16 16 16 16 16 16 16 16 16 16 16 16 16 16 16 17
17 16 16 16 16 16 16 16 16 16 16 15 15 15 15 15 15 15 15 15 15 15 15 15 15 15 16 16 16 16 16 16 16 15 16 16 16 16 16 16 16 16 16
17 16 16 16 16 16 16 16 16 15 15 15 15 15 15 15 15 15 15 15 15 15 15 15 15 15 15 16 16 16 16 15 15 15 15 16 16 16 16 16 16 16 16
17 16 16 16 16 16 16 16 15 15 15 15 15 15 15 15 15 15 15 15 15 15 15 15 15 15 15 15 15 15 15 15 15 15 15 15 16 16 16 16 16 16 16
17 17 16 16 16 16 16 15 15 15 15 15 15 15 15 15 15 15 15 15 15 15 15 15 15 15 15 15 15 15 15 15 15 15 15 15 15 15 16 16 16 16 16
17 17 16 16 16 16 15 15 15 15 15 15 15 15 15 15 15 15 15 15 15 15 15 15 15 15 15 15 15 15 15 15 15 15 15 15 15 15 15 15 15 15 15
17 17 16 16 16 16 15 15 15 15 15 15 15 15 15 15 15 15 15 15 15 15 15 15 15 15 15 15 15 15 15 15 14 15 15 15 14 15 15 15 15 15 15
17 16 16 16 16 16 15 15 15 15 15 15 14 15 15 15 15 15 15 15 15 15 15 15 15 15 15 15 15 15 15 14 14 14 14 14 14 14 14 15 15 15 15
16 16 16 16 16 15 15 15 15 15 15 14 14 14 15 14 14 14 15 15 15 15 15 15 15 15 15 15 15 15 15 15 14 14 14 14 14 14 14 14 14 14 14
16 16 16 16 16 15 15 15 15 15 15 15 14 14 15 14 14 14 14 14 15 15 15 15 15 14 14 15 15 16 16 15 14 14 14 14 14 14 14 14 14 14 14
16 16 16 16 16 15 15 15 15 15 15 15 14 14 14 14 14 14 14 14 14 14 14 14 14 14 14 14 15 15 16 16 15 14 14 14 14 14 14 14 14 14 14
16 16 16 16 16 16 15 15 15 15 15 15 14 14 14 14 14 14 14 14 14 14 14 14 14 14 14 14 14 14 15 15 15 15 14 14 14 13 13 13 14 14 14
16 16 16 16 16 16 15 15 15 15 15 15 14 14 14 14 14 14 14 14 14 14 14 14 14 14 14 14 14 14 14 14 15 15 15 14 14 13 13 13 13 13 13
16 16 16 16 16 16 15 15 15 15 15 15 14 14 14 14 14 14 14 14 14 14 14 14 14 14 14 14 14 14 14 14 14 14 15 14 14 13 13 13 13 13 13
Wind_Speed
4 5 8 9 10 11 12 13 13 13 13 13 12 11 11 10 10 10 10 10 9 9 9 8 8 8 8 8 7 7 7 7 7 7 7 7 7 6 6 5 2 4 6
5 7 10 10 11 12 13 13 13 13 13 13 12 11 10 10 10 9 9 9 9 8 8 8 8 8 8 7 7 7 7 7 7 6 4 5 7 6 6 6 7 6 4
8 9 11 11 12 13 13 13 13 13 13 12 11 11 10 10 9 9 9 9 9 9 8 8 8 7 7 7 7 6 6 6 6 4 2 3 6 7 6 6 6 6 5
9 10 12 12 12 13 13 13 13 13 13 12 11 10 10 9 9 9 9 9 9 9 8 8 7 7 7 7 6 6 6 6 5 2 2 5 5 8 7 7 6 6 5
10 11 13 12 13 13 13 13 13 13 12 11 11 10 10 9 9 10 10 9 8 8 8 8 7 7 6 6 6 6 6 5 2 2 5 5 6 7 6 6 6 6 5
11 12 13 12 12 12 12 12 12 12 11 11 11 10 10 10 10 9 9 9 8 8 8 8 7 7 7 7 6 6 5 3 1 5 5 5 6 6 6 6 6 6 5
11 12 13 13 13 12 12 11 12 12 11 11 11 10 10 9 9 9 9 8 8 8 8 8 7 7 7 7 7 6 5 3 3 4 4 5 6 5 5 5 5 5 5
10 11 13 13 13 12 11 11 11 11 11 11 11 10 10 9 9 9 8 8 8 7 7 7 7 6 6 7 7 6 6 5 4 4 4 6 8 6 5 5 5 5 4
10 10 11 11 12 12 12 11 10 10 10 10 9 9 9 9 9 8 7 7 8 8 8 7 7 7 7 7 6 6 6 5 3 4 4 6 8 7 6 5 5 4 4
9 9 9 9 9 9 10 11 10 10 9 9 8 8 7 7 7 6 6 7 7 8 7 7 7 6 6 6 6 5 3 2 4 4 4 7 7 6 6 6 5 4 4
8 7 8 8 8 8 8 9 8 9 7 6 8 7 3 5 6 6 9 7 7 7 7 7 6 5 4 5 4 2 1 2 4 4 5 8 6 5 6 5 5 4 4
8 7 6 6 6 7 6 6 6 6 6 6 6 6 5 6 6 6 8 7 7 6 6 6 4 2 1 3 4 1 2 3 3 4 6 7 6 5 5 5 5 4 4
7 6 6 6 6 6 5 5 5 5 5 6 6 6 5 5 5 5 4 5 5 3 5 4 2 4 4 4 4 4 5 4 4 5 7 7 6 5 6 6 5 5 4
7 6 6 6 6 6 6 6 5 5 5 5 5 5 5 4 4 5 4 5 4 4 4 4 3 5 5 5 5 5 6 4 5 5 8 9 7 6 7 7 7 6 6
7 7 7 5 5 6 6 5 5 5 5 6 5 5 5 4 4 4 4 4 4 4 3 3 4 5 5 5 5 6 5 6 6 6 7 11 10 9 9 8 9 9 8
7 7 7 6 5 5 5 5 5 5 4 5 5 5 5 5 4 4 4 4 4 4 4 4 4 4 4 5 5 6 6 6 6 6 7 8 10 10 10 10 10 10 10
8 8 7 5 5 6 6 6 5 4 5 5 5 5 6 5 5 5 4 4 4 4 4 3 4 4 4 5 5 6 6 6 6 7 7 6 7 10 11 11 11 11 11
7 8 7 5 5 5 5 5 5 5 5 5 5 5 6 6 6 5 4 4 4 4 3 3 3 4 4 4 4 5 5 5 7 7 7 7 7 7 9 11 12 13 13
7 7 7 6 5 5 5 5 5 6 6 6 6 6 5 6 6 6 5 4 5 4 3 3 3 3 4 4 4 4 5 5 5 6 7 8 8 7 7 9 11 13 13
7 7 7 6 6 6 5 5 5 5 5 6 6 6 6 6 6 5 5 5 5 4 4 3 4 4 3 3 4 4 4 4 5 6 6 7 8 8 8 7 7 9 12
8 7 7 6 6 5 4 4 4 4 4 5 5 6 6 6 6 6 5 5 5 5 4 4 3 3 3 2 2 3 4 4 5 5 5 5 7 7 8 8 8 7 7
8 7 7 6 6 5 3 4 3 4 3 4 5 6 6 6 6 5 5 5 5 4 4 5 4 2 3 2 1 0 2 3 4 5 4 5 5 6 7 8 8 8 8
9 8 6 6 6 5 5 4 4 4 4 4 4 4 5 6 6 6 6 5 5 4 4 4 3 3 3 3 4 3 2 2 2 3 5 5 5 5 5 6 8 8 8
9 7 7 7 6 6 5 4 5 4 4 3 3 4 4 5 6 6 5 5 5 5 5 4 4 3 3 3 3 4 4 3 2 2 3 5 5 6 6 6 7 8 8
9 8 7 7 6 6 5 5 4 4 4 4 4 4 4 5 5 6 5 5 5 5 5 5 5 4 4 4 3 3 3 3 3 2 2 3 4 5 5 6 6 7 8
9 8 7 7 7 6 6 6 5 5 5 5 4 4 3 3 4 5 5 5 5 5 5 5 5 6 5 5 4 4 4 3 3 3 2 2 3 3 4 5 6 6 7
Wind_Direction
99 100 99 103 103 100 100 100 102 104 105 103 102 101 99 96 94 91 90 86 83 82 81 80 80 79 78 72 70 70 70 66 64 68 69 67 62 65 61 50 34 90 74
111 107 99 102 105 104 101 99 99 100 101 101 100 99 96 93 91 90 86 83 82 80 78 78 77 77 76 72 69 68 67 63 63 62 61 90 74 62 57 49 27 50 62
105 108 106 102 103 103 100 98 97 96 97 97 95 94 93 92 90 87 82 78 76 75 74 75 75 74 74 69 66 65 64 61 61 51 317 71 84 71 58 52 48 53 61
105 104 99 101 102 102 99 96 94 93 91 91 90 88 87 86 84 80 76 72 71 69 66 67 72 72 70 65 62 62 61 59 53 329 35 52 66 72 57 53 50 55 62
103 101 98 100 101 100 98 96 96 94 91 90 89 87 86 85 81 77 75 71 67 65 62 61 65 69 67 64 62 62 60 55 35 3 50 50 57 66 56 53 52 53 62
105 101 98 97 100 99 97 95 94 92 89 87 87 86 86 84 81 77 75 73 68 64 62 61 62 66 65 63 64 62 56 33 300 53 51 50 56 61 55 52 48 55 60
106 103 101 92 91 91 91 94 93 90 88 85 83 80 80 80 76 73 71 69 66 63 61 61 61 64 64 62 62 57 47 358 43 56 49 48 47 46 54 55 53 54 53
109 107 106 98 90 86 84 87 90 88 85 83 80 79 78 77 74 70 66 63 60 59 60 59 60 63 64 61 58 53 37 351 63 53 54 53 47 54 57 58 54 51 46
109 106 105 105 103 98 88 82 84 84 83 81 81 80 76 73 72 68 63 59 58 58 58 60 62 65 68 65 59 52 43 12 32 48 53 55 49 46 50 56 55 51 48
112 107 105 104 101 99 96 85 83 83 82 82 81 80 84 94 89 82 76 63 56 59 59 61 64 67 70 67 60 54 28 303 42 46 49 55 46 43 44 47 48 47 51
114 112 107 103 99 97 93 94 97 96 90 103 98 97 105 84 87 90 63 62 61 63 64 63 65 69 79 99 77 54 310 37 52 42 47 44 38 44 44 43 42 42 47
122 116 110 106 104 100 93 95 87 88 86 76 76 78 73 74 73 74 89 76 70 73 79 70 73 126 212 90 109 165 63 60 55 54 54 40 34 42 42 40 38 39 42
122 115 111 109 103 102 99 90 88 88 85 74 68 77 73 74 81 74 74 87 81 75 66 78 99 71 70 67 55 64 51 53 58 54 55 46 38 44 44 44 42 43 42
117 113 108 105 105 102 98 94 89 84 78 71 65 64 69 66 64 69 67 59 53 56 53 52 58 73 65 68 67 67 66 54 59 61 61 55 48 49 46 44 47 47 46
119 116 109 105 101 102 98 93 87 75 66 74 61 57 68 73 69 69 69 61 53 51 58 61 65 67 66 63 58 60 62 61 62 64 68 67 57 54 51 50 49 45 43
123 120 121 111 100 101 100 94 82 78 75 67 64 61 68 68 63 61 65 57 51 48 46 51 69 71 69 65 60 61 58 60 62 64 64 73 69 58 52 51 49 47 42
130 127 122 113 105 101 97 91 82 75 73 70 66 63 68 62 61 62 61 62 55 52 54 51 66 71 77 81 75 65 62 57 64 63 59 55 72 71 58 50 48 48 46
140 134 127 121 110 105 101 101 90 80 77 75 70 64 64 63 62 59 58 57 54 53 57 63 63 75 80 77 75 68 68 62 58 54 57 57 53 59 68 59 54 49 44
147 140 134 124 118 113 108 106 93 88 80 74 70 63 60 62 62 66 52 46 53 53 55 60 64 69 76 76 82 75 64 61 57 53 55 53 56 54 60 70 63 53 46
149 147 140 134 136 128 127 117 104 92 85 77 70 64 60 63 61 62 61 52 50 55 52 58 66 69 72 79 83 81 74 73 62 51 48 55 53 53 52 55 63 65 55
153 152 149 150 147 143 136 132 121 108 97 85 72 66 64 63 61 60 56 55 48 55 49 54 64 79 70 69 106 105 97 79 68 64 50 52 59 55 55 54 51 47 58
161 159 159 158 155 147 136 132 126 112 100 86 77 69 61 58 56 58 59 63 60 62 57 52 53 57 68 35 9 105 123 118 76 65 61 54 53 57 56 54 51 47 41
169 167 166 165 159 154 148 138 136 128 125 113 96 79 59 58 58 55 57 59 58 60 59 53 51 47 55 51 27 360 359 49 92 83 62 58 55 49 53 52 46 42 39
174 170 170 168 162 161 163 156 149 142 130 111 101 96 86 70 66 59 60 61 61 61 62 55 53 52 43 53 55 32 30 26 354 99 91 69 62 53 47 43 41 39 36
174 172 172 167 163 163 167 158 162 147 131 122 119 112 96 77 67 65 62 63 65 63 61 57 54 47 51 43 46 48 47 38 9 15 70 69 71 58 50 45 39 35 33
173 171 171 168 163 166 171 168 164 148 143 135 132 122 109 93 78 72 67 67 66 64 62 59 63 60 56 54 50 46 38 31 22 27 40 59 65 63 56 48 37 32 29
Height
1541 1541 1541 1541 1542 1542 1543 1543 1544 1544 1545 1545 1546 1546 1546 1547 1547 1547 1547 1547 1547 1547 1547 1547 1547 1547 1546 1546 1546 1546 1546 1545 1545 1545 1544 1544 1544 1544 1544 1543 1543 1544 1542
1542 1542 1542 1543 1544 1544 1545 1545 1545 1546 1546 1547 1547 1547 1548 1548 1548 1548 1548 1548 1548 1548 1548 1548 1548 1548 1547 1547 1547 1547 1547 1546 1546 1546 1545 1545 1545 1545 1544 1544 1544 1543 1542
1543 1544 1544 1545 1546 1546 1546 1547 1547 1548 1548 1548 1549 1549 1549 1549 1549 1549 1549 1549 1549 1549 1549 1549 1549 1549 1549 1548 1548 1548 1548 1547 1547 1547 1547 1548 1547 1545 1545 1545 1544 1544 1543
1545 1546 1546 1546 1547 1548 1548 1548 1549 1549 1549 1550 1550 1550 1550 1550 1551 1550 1550 1550 1550 1550 1550 1550 1550 1550 1550 1549 1549 1549 1549 1548 1548 1548 1549 1549 1548 1546 1546 1546 1545 1545 1545
1547 1548 1548 1548 1549 1550 1550 1551 1551 1551 1551 1551 1551 1551 1552 1552 1551 1551 1551 1551 1551 1551 1551 1551 1551 1551 1551 1550 1550 1550 1549 1549 1549 1549 1549 1548 1548 1547 1546 1546 1546 1546 1546
1549 1550 1549 1550 1551 1551 1552 1552 1552 1553 1553 1553 1553 1553 1553 1553 1553 1553 1552 1552 1552 1552 1551 1551 1551 1551 1551 1551 1551 1551 1550 1550 1551 1551 1550 1549 1549 1547 1547 1547 1547 1547 1547
1551 1552 1552 1552 1553 1553 1554 1554 1554 1554 1554 1554 1554 1554 1554 1554 1553 1553 1553 1553 1553 1552 1552 1552 1552 1552 1552 1552 1552 1552 1551 1551 1552 1551 1551 1550 1548 1547 1548 1548 1548 1548 1548
1553 1554 1554 1554 1555 1555 1555 1555 1555 1556 1556 1556 1556 1555 1555 1555 1555 1555 1554 1554 1554 1553 1553 1553 1553 1553 1553 1553 1552 1552 1552 1552 1553 1553 1551 1550 1547 1546 1548 1548 1549 1549 1548
1555 1556 1557 1558 1558 1557 1557 1557 1557 1558 1557 1557 1557 1557 1556 1556 1556 1556 1556 1555 1555 1554 1554 1553 1554 1553 1553 1553 1553 1553 1553 1552 1553 1553 1553 1551 1550 1549 1549 1549 1549 1549 1549
1558 1558 1559 1560 1560 1561 1560 1559 1559 1559 1559 1559 1559 1558 1558 1558 1557 1557 1557 1556 1556 1555 1555 1555 1554 1554 1554 1554 1554 1553 1553 1553 1554 1554 1553 1552 1551 1551 1550 1550 1550 1549 1549
1559 1560 1561 1562 1562 1562 1563 1562 1562 1562 1561 1561 1561 1560 1560 1561 1561 1560 1558 1558 1557 1557 1556 1556 1555 1555 1555 1555 1554 1554 1554 1555 1555 1555 1554 1552 1552 1551 1551 1551 1550 1550 1550
1561 1562 1563 1563 1564 1564 1564 1564 1564 1564 1564 1564 1563 1562 1562 1562 1562 1561 1559 1559 1558 1558 1557 1557 1556 1556 1557 1557 1556 1555 1556 1556 1555 1555 1554 1553 1552 1552 1551 1551 1551 1550 1550
1562 1563 1564 1564 1565 1565 1566 1566 1566 1566 1565 1565 1565 1564 1563 1563 1563 1563 1562 1562 1561 1560 1560 1559 1559 1559 1559 1557 1557 1557 1557 1556 1556 1556 1555 1553 1553 1552 1552 1551 1551 1550 1550
1563 1564 1565 1566 1566 1567 1567 1567 1567 1567 1567 1567 1566 1566 1565 1565 1565 1564 1564 1563 1563 1562 1561 1561 1560 1560 1560 1560 1559 1558 1557 1557 1557 1556 1555 1554 1553 1553 1552 1552 1551 1551 1550
1564 1565 1565 1566 1568 1568 1568 1568 1568 1568 1568 1568 1566 1567 1567 1566 1566 1566 1565 1564 1564 1563 1563 1562 1562 1562 1561 1561 1560 1560 1559 1558 1557 1557 1556 1555 1554 1554 1553 1552 1552 1551 1550
1565 1566 1566 1568 1568 1569 1569 1570 1569 1569 1568 1568 1568 1568 1568 1568 1568 1567 1567 1565 1565 1564 1564 1564 1564 1563 1563 1562 1561 1560 1560 1559 1559 1558 1558 1556 1555 1555 1554 1553 1552 1552 1550
1566 1567 1568 1569 1570 1570 1570 1570 1570 1570 1570 1570 1569 1570 1569 1569 1569 1568 1568 1567 1566 1566 1566 1565 1565 1564 1563 1563 1562 1562 1561 1561 1560 1560 1559 1558 1557 1556 1555 1554 1553 1552 1551
1567 1568 1569 1570 1571 1571 1571 1571 1572 1572 1571 1571 1570 1570 1571 1570 1570 1569 1569 1568 1568 1567 1566 1566 1565 1565 1565 1564 1564 1563 1562 1562 1562 1561 1560 1559 1558 1558 1556 1555 1554 1553 1552
1568 1569 1570 1571 1571 1571 1571 1572 1573 1573 1572 1572 1572 1572 1572 1571 1571 1570 1569 1569 1569 1568 1568 1567 1566 1566 1566 1565 1565 1564 1564 1563 1563 1562 1562 1561 1560 1559 1558 1557 1556 1554 1553
1568 1569 1571 1571 1572 1572 1573 1574 1574 1574 1574 1573 1573 1573 1572 1572 1572 1571 1571 1570 1569 1569 1568 1568 1567 1567 1566 1566 1566 1565 1565 1564 1564 1563 1563 1562 1561 1560 1559 1558 1557 1556 1554
1568 1570 1571 1572 1572 1573 1574 1575 1575 1575 1575 1575 1574 1574 1573 1573 1573 1572 1572 1571 1570 1570 1569 1569 1568 1568 1567 1567 1567 1567 1566 1566 1565 1564 1564 1563 1562 1561 1560 1559 1558 1557 1556
1568 1570 1571 1572 1573 1573 1574 1575 1575 1575 1576 1575 1575 1575 1575 1574 1574 1574 1573 1572 1571 1570 1570 1569 1569 1569 1568 1568 1568 1568 1568 1568 1566 1566 1565 1564 1563 1562 1561 1560 1559 1558 1557
1567 1569 1570 1572 1572 1573 1574 1575 1575 1576 1576 1577 1577 1576 1576 1575 1575 1574 1574 1573 1573 1572 1571 1570 1570 1570 1570 1569 1568 1569 1568 1568 1568 1568 1566 1565 1564 1563 1563 1562 1560 1559 1558
1567 1568 1570 1571 1572 1573 1574 1575 1576 1577 1577 1577 1577 1577 1577 1576 1576 1575 1575 1574 1574 1573 1572 1572 1571 1571 1570 1570 1569 1569 1569 1569 1569 1568 1568 1567 1565 1564 1563 1562 1561 1560 1559
1566 1567 1569 1570 1572 1573 1574 1575 1576 1577 1577 1578 1578 1578 1578 1577 1577 1576 1576 1575 1575 1574 1573 1573 1572 1572 1571 1571 1571 1570 1570 1569 1569 1569 1568 1568 1567 1566 1564 1563 1562 1561 1560
1564 1566 1568 1569 1571 1572 1573 1575 1576 1577 1577 1578 1578 1579 1579 1578 1578 1577 1577 1576 1576 1575 1575 1574 1573 1573 1572 1572 1572 1571 1571 1570 1570 1570 1569 1568 1568 1567 1565 1564 1563 1562 1560